QPF
0.00 0.00 0.00 0.00 0.00 0.00 0.00 0.00 0.00 0.00 0.00 0.00 0.00 0.00 0.00 0.00 0.00 0.00 0.00 0.00 0.00 0.00 0.00 0.00 0.00 0.00 0.00 0.00 0.00 0.00 0.00 0.00 0.00 0.00 0.00 0.00 0.00 0.00 0.00 0.00 0.00 0.00 0.00 0.00
0.00 0.00 0.00 0.00 0.00 0.00 0.00 0.00 0.00 0.00 0.00 0.00 0.00 0.00 0.00 0.00 0.00 0.00 0.00 0.00 0.00 0.00 0.00 0.00 0.00 0.00 0.00 0.00 0.00 0.00 0.00 0.00 0.00 0.00 0.00 0.00 0.00 0.00 0.00 0.00 0.00 0.00 0.00 0.00
0.00 0.00 0.00 0.00 0.00 0.00 0.00 0.00 0.00 0.00 0.00 0.00 0.00 0.00 0.00 0.00 0.00 0.00 0.00 0.00 0.00 0.00 0.00 0.00 0.00 0.00 0.00 0.00 0.00 0.00 0.00 0.00 0.00 0.00 0.00 0.00 0.02 0.01 0.00 0.00 0.00 0.00 0.00 0.00
0.00 0.00 0.00 0.00 0.00 0.00 0.00 0.00 0.00 0.00 0.00 0.00 0.00 0.00 0.00 0.00 0.00 0.01 0.01 0.00 0.00 0.00 0.00 0.00 0.00 0.00 0.00 0.00 0.00 0.00 0.00 0.00 0.00 0.00 0.00 0.10 0.10 0.04 0.01 0.00 0.00 0.00 0.00 0.00
0.00 0.00 0.00 0.00 0.00 0.00 0.00 0.00 0.00 0.00 0.00 0.00 0.00 0.00 0.00 0.00 0.00 0.00 0.00 0.02 0.00 0.00 0.00 0.00 0.00 0.00 0.00 0.00 0.00 0.00 0.00 0.00 0.00 0.00 0.00 0.03 0.01 0.00 0.00 0.00 0.00 0.00 0.00 0.00
0.00 0.00 0.00 0.00 0.00 0.00 0.00 0.00 0.00 0.00 0.00 0.00 0.00 0.00 0.00 0.00 0.00 0.00 0.00 0.00 0.01 0.00 0.00 0.00 0.00 0.00 0.00 0.00 0.00 0.00 0.00 0.00 0.00 0.00 0.00 0.07 0.13 0.12 0.05 0.07 0.04 0.00 0.00 0.00
0.00 0.00 0.00 0.00 0.00 0.00 0.00 0.00 0.00 0.00 0.00 0.00 0.00 0.00 0.00 0.00 0.00 0.00 0.00 0.00 0.00 0.00 0.00 0.00 0.00 0.00 0.00 0.00 0.00 0.00 0.00 0.00 0.00 0.00 0.00 0.01 0.10 0.12 0.01 0.13 0.06 0.01 0.00 0.00
0.00 0.00 0.00 0.00 0.00 0.00 0.00 0.00 0.00 0.00 0.00 0.00 0.00 0.00 0.00 0.00 0.00 0.00 0.00 0.00 0.00 0.00 0.00 0.00 0.00 0.00 0.00 0.00 0.00 0.00 0.00 0.00 0.10 0.08 0.05 0.02 0.00 0.02 0.03 0.06 0.08 0.09 0.08 0.04
0.00 0.00 0.00 0.00 0.00 0.00 0.00 0.00 0.00 0.00 0.00 0.00 0.00 0.00 0.00 0.00 0.00 0.00 0.00 0.00 0.00 0.00 0.00 0.00 0.00 0.00 0.00 0.00 0.00 0.01 0.03 0.13 0.17 0.21 0.12 0.09 0.01 0.04 0.07 0.06 0.02 0.02 0.01 0.01
0.00 0.00 0.00 0.00 0.00 0.00 0.00 0.00 0.00 0.00 0.00 0.00 0.00 0.00 0.00 0.00 0.00 0.00 0.00 0.01 0.01 0.01 0.01 0.01 0.01 0.01 0.00 0.02 0.04 0.06 0.05 0.08 0.16 0.08 0.01 0.00 0.00 0.00 0.00 0.00 0.00 0.00 0.00 0.00
0.00 0.00 0.00 0.00 0.00 0.00 0.00 0.00 0.00 0.00 0.00 0.00 0.00 0.00 0.00 0.00 0.00 0.00 0.01 0.02 0.01 0.02 0.03 0.04 0.05 0.04 0.04 0.05 0.06 0.03 0.01 0.00 0.00 0.00 0.00 0.00 0.00 0.00 0.00 0.00 0.00 0.00 0.00 0.00
0.00 0.00 0.00 0.00 0.00 0.00 0.00 0.00 0.00 0.00 0.00 0.00 0.00 0.00 0.00 0.00 0.00 0.01 0.02 0.03 0.03 0.05 0.08 0.10 0.07 0.12 0.13 0.09 0.06 0.05 0.01 0.00 0.00 0.00 0.00 0.00 0.00 0.00 0.00 0.00 0.00 0.00 0.00 0.00
0.00 0.00 0.00 0.00 0.00 0.00 0.00 0.00 0.00 0.00 0.00 0.00 0.00 0.00 0.00 0.00 0.00 0.00 0.04 0.05 0.08 0.11 0.12 0.14 0.13 0.07 0.03 0.01 0.00 0.02 0.02 0.00 0.00 0.00 0.00 0.00 0.00 0.00 0.00 0.00 0.00 0.00 0.00 0.00
0.00 0.00 0.00 0.00 0.00 0.00 0.00 0.00 0.00 0.00 0.00 0.00 0.00 0.00 0.00 0.00 0.00 0.00 0.02 0.03 0.04 0.05 0.04 0.04 0.03 0.02 0.00 0.00 0.00 0.00 0.00 0.00 0.00 0.00 0.00 0.00 0.00 0.00 0.00 0.00 0.00 0.00 0.00 0.00
0.00 0.00 0.00 0.00 0.00 0.00 0.00 0.00 0.00 0.00 0.00 0.00 0.00 0.00 0.00 0.00 0.00 0.00 0.00 0.00 0.00 0.00 0.00 0.00 0.00 0.00 0.00 0.00 0.00 0.00 0.00 0.00 0.00 0.00 0.00 0.00 0.00 0.00 0.00 0.00 0.00 0.00 0.00 0.00
0.00 0.00 0.00 0.00 0.00 0.00 0.00 0.00 0.00 0.00 0.00 0.00 0.00 0.00 0.00 0.00 0.00 0.00 0.00 0.00 0.00 0.00 0.00 0.00 0.00 0.00 0.00 0.00 0.00 0.00 0.00 0.00 0.00 0.00 0.00 0.00 0.00 0.00 0.00 0.00 0.00 0.00 0.00 0.00
0.00 0.00 0.00 0.00 0.00 0.00 0.00 0.00 0.00 0.00 0.00 0.00 0.00 0.00 0.00 0.00 0.00 0.00 0.00 0.00 0.00 0.00 0.00 0.00 0.00 0.00 0.00 0.00 0.00 0.00 0.00 0.00 0.00 0.00 0.00 0.00 0.00 0.00 0.00 0.00 0.00 0.00 0.00 0.00
0.00 0.00 0.00 0.00 0.00 0.00 0.00 0.00 0.00 0.00 0.00 0.00 0.00 0.00 0.00 0.00 0.00 0.00 0.00 0.00 0.00 0.00 0.00 0.00 0.00 0.00 0.00 0.00 0.00 0.00 0.00 0.00 0.00 0.00 0.00 0.00 0.00 0.00 0.00 0.00 0.00 0.00 0.00 0.00
0.00 0.00 0.00 0.00 0.00 0.00 0.00 0.00 0.00 0.00 0.00 0.00 0.00 0.00 0.00 0.00 0.00 0.00 0.00 0.00 0.00 0.00 0.00 0.00 0.00 0.00 0.00 0.00 0.00 0.00 0.00 0.00 0.00 0.00 0.00 0.00 0.00 0.00 0.00 0.00 0.00 0.00 0.00 0.00
0.00 0.00 0.00 0.00 0.00 0.00 0.00 0.00 0.00 0.00 0.00 0.00 0.00 0.00 0.00 0.00 0.00 0.00 0.00 0.00 0.00 0.00 0.00 0.00 0.00 0.00 0.00 0.00 0.00 0.00 0.00 0.00 0.00 0.00 0.00 0.00 0.00 0.00 0.00 0.01 0.01 0.01 0.01 0.00
0.00 0.00 0.00 0.00 0.00 0.00 0.00 0.00 0.00 0.00 0.00 0.00 0.00 0.00 0.00 0.00 0.00 0.00 0.00 0.00 0.00 0.00 0.00 0.00 0.00 0.00 0.00 0.00 0.00 0.00 0.00 0.00 0.00 0.00 0.00 0.00 0.00 0.00 0.00 0.00 0.00 0.00 0.00 0.00
0.00 0.00 0.00 0.00 0.00 0.00 0.00 0.00 0.00 0.00 0.00 0.00 0.00 0.00 0.00 0.00 0.00 0.00 0.00 0.00 0.00 0.00 0.00 0.00 0.00 0.00 0.00 0.00 0.00 0.00 0.00 0.00 0.00 0.00 0.00 0.00 0.00 0.00 0.01 0.01 0.00 0.00 0.00 0.00
0.00 0.00 0.00 0.00 0.00 0.00 0.00 0.00 0.00 0.00 0.00 0.00 0.00 0.00 0.00 0.00 0.00 0.00 0.00 0.00 0.00 0.00 0.00 0.00 0.00 0.00 0.00 0.00 0.00 0.00 0.00 0.00 0.00 0.00 0.00 0.00 0.00 0.00 0.01 0.00 0.00 0.00 0.00 0.00
0.00 0.00 0.00 0.00 0.00 0.00 0.00 0.00 0.00 0.00 0.00 0.00 0.00 0.00 0.00 0.00 0.00 0.00 0.00 0.00 0.00 0.00 0.00 0.00 0.00 0.00 0.00 0.00 0.00 0.00 0.00 0.00 0.00 0.00 0.00 0.00 0.00 0.00 0.00 0.00 0.00 0.01 0.01 0.00
0.00 0.00 0.00 0.00 0.00 0.00 0.00 0.00 0.00 0.00 0.00 0.00 0.00 0.00 0.00 0.00 0.00 0.00 0.00 0.00 0.00 0.00 0.00 0.00 0.00 0.00 0.00 0.00 0.00 0.00 0.00 0.00 0.00 0.00 0.00 0.00 0.00 0.00 0.01 0.01 0.02 0.03 0.01 0.03
0.00 0.00 0.00 0.00 0.00 0.00 0.00 0.00 0.00 0.00 0.00 0.00 0.00 0.00 0.00 0.00 0.00 0.00 0.00 0.00 0.00 0.00 0.00 0.00 0.00 0.00 0.00 0.00 0.00 0.00 0.00 0.00 0.00 0.00 0.00 0.00 0.00 0.01 0.02 0.01 0.01 0.02 0.05 0.03
MSLP
1005.39 1004.38 1003.50 1003.44 1003.87 1003.95 1004.43 1004.48 1004.49 1005.10 1005.83 1006.37 1006.83 1007.68 1009.00 1009.77 1010.05 1010.78 1011.47 1012.11 1012.58 1012.93 1013.40 1014.07 1014.84 1015.35 1015.81 1016.54 1017.25 1017.88 1018.32 1018.67 1018.98 1019.05 1018.95 1018.84 1018.60 1018.51 1018.48 1018.53 1018.91 1019.29 1019.33 1019.40
1005.13 1003.90 1003.78 1004.12 1004.32 1004.26 1004.07 1003.99 1003.97 1004.84 1005.50 1005.57 1006.23 1007.04 1008.34 1009.36 1009.74 1010.24 1010.86 1011.58 1012.02 1012.45 1012.84 1013.71 1014.49 1015.08 1015.63 1016.15 1016.88 1017.49 1017.93 1018.43 1018.84 1018.77 1018.80 1018.72 1018.64 1018.45 1018.34 1018.37 1018.77 1019.08 1019.18 1019.27
1004.24 1003.81 1004.46 1004.32 1003.86 1003.77 1003.50 1003.47 1003.57 1003.71 1005.11 1005.30 1005.59 1006.21 1007.74 1008.82 1009.52 1010.11 1010.56 1011.13 1011.59 1011.88 1012.46 1013.34 1014.05 1014.55 1015.06 1015.61 1016.29 1016.88 1017.62 1018.07 1018.53 1018.69 1018.77 1018.89 1018.94 1018.93 1018.53 1018.34 1018.40 1018.27 1018.75 1018.99
1005.34 1004.39 1004.57 1004.11 1003.77 1003.58 1003.11 1004.02 1003.79 1004.05 1004.23 1003.98 1005.02 1005.13 1006.59 1007.85 1009.08 1009.88 1010.42 1010.89 1011.20 1011.60 1012.08 1012.59 1013.47 1014.06 1014.47 1014.87 1015.54 1016.33 1017.07 1017.69 1018.20 1018.60 1018.51 1018.75 1018.86 1018.66 1017.97 1018.12 1018.11 1018.40 1018.59 1018.57
1005.36 1004.84 1004.87 1004.18 1003.56 1003.97 1003.98 1004.21 1003.78 1003.85 1003.64 1003.95 1004.67 1004.83 1006.53 1007.73 1008.39 1009.31 1010.00 1011.16 1011.12 1011.39 1011.77 1012.26 1012.77 1013.29 1013.97 1014.49 1014.96 1015.75 1016.71 1017.36 1017.80 1018.07 1018.43 1018.46 1018.51 1018.25 1018.05 1018.20 1018.50 1018.53 1018.48 1018.42
1005.09 1005.46 1005.08 1004.71 1004.89 1004.55 1004.52 1004.35 1004.29 1004.21 1003.77 1003.67 1004.24 1005.42 1006.10 1007.35 1008.98 1009.51 1009.54 1010.23 1011.36 1011.57 1011.84 1012.24 1012.67 1013.43 1014.37 1014.92 1015.19 1015.47 1016.52 1017.51 1017.99 1018.57 1018.95 1018.84 1018.82 1018.93 1018.98 1018.50 1018.60 1018.47 1017.68 1017.48
1005.00 1005.22 1005.08 1005.05 1004.83 1004.97 1004.38 1003.67 1003.22 1003.32 1003.27 1003.38 1005.06 1006.03 1007.23 1009.31 1010.84 1010.61 1010.25 1009.95 1010.49 1011.41 1012.22 1012.99 1013.50 1013.69 1014.69 1015.16 1016.14 1016.63 1016.98 1018.01 1018.36 1018.78 1018.66 1018.65 1018.97 1019.10 1019.02 1018.86 1018.91 1018.33 1017.61 1017.30
1003.75 1004.58 1005.06 1005.15 1004.42 1003.87 1004.05 1003.38 1002.87 1002.47 1002.80 1003.23 1005.51 1005.97 1007.77 1010.24 1011.23 1011.12 1010.84 1010.56 1010.44 1011.38 1012.28 1012.96 1013.54 1014.11 1014.77 1015.52 1016.30 1017.23 1017.65 1018.29 1018.72 1018.92 1018.77 1018.88 1018.95 1018.89 1018.81 1018.75 1018.76 1018.64 1018.38 1018.15
1003.46 1003.61 1005.06 1005.12 1004.84 1004.94 1004.48 1004.24 1004.03 1003.60 1004.03 1004.41 1004.67 1006.84 1009.22 1010.54 1011.37 1011.58 1010.93 1010.54 1011.40 1011.96 1013.06 1013.81 1014.63 1015.42 1016.08 1017.12 1017.85 1018.36 1018.60 1018.82 1019.30 1019.14 1019.03 1020.11 1019.55 1019.45 1019.51 1019.05 1018.86 1018.56 1018.27 1017.71
1003.51 1003.64 1004.60 1005.58 1005.42 1005.68 1004.91 1004.65 1004.36 1004.02 1003.87 1003.97 1004.47 1006.40 1007.52 1010.13 1011.61 1012.55 1012.93 1013.52 1013.91 1014.22 1015.19 1015.64 1016.31 1017.13 1017.58 1018.35 1018.52 1019.08 1019.05 1019.52 1019.94 1020.08 1020.27 1019.95 1019.65 1019.51 1019.51 1018.81 1018.72 1018.75 1018.33 1018.08
1004.00 1003.95 1004.78 1005.65 1004.96 1004.23 1005.39 1004.63 1004.57 1004.24 1004.47 1004.20 1004.58 1005.85 1009.04 1010.89 1012.34 1013.35 1014.48 1015.28 1015.88 1016.88 1017.38 1017.65 1018.07 1018.78 1019.08 1019.76 1019.37 1019.67 1019.89 1019.78 1020.17 1020.91 1021.18 1020.59 1020.00 1019.51 1019.28 1018.95 1018.79 1018.63 1018.30 1017.94
1004.60 1003.75 1004.02 1004.72 1005.97 1006.00 1005.34 1004.48 1004.43 1003.97 1004.38 1005.13 1006.12 1007.57 1010.21 1011.61 1013.07 1014.87 1015.95 1017.01 1017.79 1018.41 1018.87 1019.40 1019.53 1019.77 1020.15 1019.99 1020.03 1020.83 1021.08 1020.64 1020.85 1021.50 1021.27 1020.59 1020.13 1019.94 1019.53 1019.22 1018.88 1018.64 1018.25 1017.78
1005.03 1004.21 1004.50 1005.51 1006.26 1006.32 1005.53 1005.77 1005.40 1005.15 1005.14 1005.11 1006.21 1007.84 1010.53 1011.94 1013.67 1015.74 1017.17 1018.28 1019.00 1019.37 1019.64 1019.92 1019.73 1020.18 1020.08 1020.22 1020.91 1020.90 1021.00 1021.30 1020.57 1020.57 1021.09 1021.17 1020.64 1020.37 1019.71 1019.53 1019.14 1018.77 1018.35 1017.78
1006.08 1004.41 1004.11 1004.21 1004.57 1004.55 1005.92 1006.22 1006.25 1005.87 1005.29 1005.13 1006.03 1008.46 1010.70 1012.05 1013.96 1015.89 1017.18 1018.17 1018.64 1018.98 1019.34 1019.74 1019.95 1020.42 1020.72 1020.58 1020.63 1020.41 1021.29 1020.98 1021.17 1021.71 1021.27 1020.85 1020.99 1020.84 1020.21 1019.87 1019.54 1018.93 1018.45 1017.79
1005.73 1005.02 1005.58 1005.83 1006.05 1006.02 1006.48 1006.80 1007.02 1006.77 1006.47 1006.56 1006.78 1007.86 1010.16 1012.07 1013.64 1015.35 1016.61 1017.43 1017.99 1018.61 1019.06 1019.47 1019.70 1020.18 1020.53 1020.86 1021.03 1021.28 1021.33 1021.38 1021.35 1021.23 1020.99 1020.97 1020.97 1020.70 1020.47 1020.15 1019.67 1019.08 1018.34 1017.74
1006.35 1006.60 1006.56 1006.89 1007.21 1007.31 1007.58 1008.03 1008.19 1008.14 1008.10 1008.08 1008.18 1008.60 1010.50 1012.56 1014.02 1015.33 1016.22 1016.88 1017.56 1018.29 1019.03 1019.50 1019.99 1020.49 1020.87 1021.25 1021.45 1021.52 1021.56 1021.60 1021.56 1021.37 1021.20 1021.18 1020.85 1020.49 1020.10 1019.69 1019.21 1018.68 1018.14 1017.52
1006.78 1006.98 1007.14 1006.85 1008.19 1008.23 1008.37 1008.49 1009.04 1008.89 1009.49 1009.07 1008.86 1009.26 1011.65 1013.16 1014.34 1015.18 1016.02 1016.90 1017.65 1018.42 1019.23 1019.92 1020.49 1020.93 1021.28 1021.41 1021.61 1021.49 1021.43 1021.35 1021.13 1020.95 1020.80 1020.57 1020.29 1019.89 1019.54 1019.22 1018.73 1018.14 1017.42 1016.78
1007.48 1007.57 1007.62 1007.75 1008.74 1008.52 1009.53 1010.18 1010.28 1010.29 1010.55 1010.38 1010.87 1011.23 1012.40 1013.67 1014.60 1015.42 1016.31 1016.99 1018.00 1018.73 1019.45 1020.21 1020.75 1021.13 1021.49 1021.59 1021.68 1021.57 1021.31 1021.10 1020.93 1020.78 1020.55 1020.31 1019.94 1019.42 1019.00 1018.35 1017.69 1017.12 1016.47 1015.77
1008.27 1008.06 1008.59 1008.38 1008.29 1009.29 1010.04 1010.65 1010.71 1010.55 1010.92 1011.65 1011.82 1012.57 1013.37 1014.29 1015.22 1016.08 1017.02 1017.84 1018.55 1019.20 1019.86 1020.46 1020.95 1021.20 1021.36 1021.35 1021.41 1021.31 1021.08 1020.86 1020.61 1020.32 1020.14 1020.02 1019.78 1019.62 1019.33 1018.67 1017.83 1016.95 1015.98 1014.96
1009.03 1009.27 1009.15 1009.53 1009.15 1009.09 1009.94 1010.90 1011.34 1011.36 1010.91 1012.14 1012.67 1013.26 1014.04 1014.89 1014.82 1014.84 1017.01 1018.17 1018.95 1019.57 1020.10 1020.39 1020.69 1020.88 1021.07 1021.19 1021.24 1021.12 1020.84 1020.63 1020.30 1020.21 1020.06 1019.76 1019.54 1019.03 1018.73 1018.24 1017.54 1016.72 1015.88 1014.54
1009.57 1009.51 1009.47 1009.57 1009.69 1009.86 1010.85 1011.32 1011.80 1011.62 1012.05 1012.35 1012.90 1013.50 1014.13 1014.68 1015.38 1016.39 1017.27 1018.31 1018.98 1019.68 1020.19 1020.53 1020.72 1020.71 1020.80 1020.88 1020.91 1020.79 1020.48 1020.13 1019.91 1019.87 1019.59 1019.24 1019.21 1018.67 1018.10 1017.19 1016.41 1015.52 1014.52 1013.43
1009.81 1009.67 1009.64 1010.21 1010.27 1010.40 1011.31 1011.88 1012.00 1012.32 1012.32 1012.60 1013.11 1013.62 1014.34 1015.18 1016.34 1017.00 1017.71 1018.50 1019.26 1019.80 1020.16 1020.36 1020.30 1020.25 1020.30 1020.33 1020.32 1020.04 1019.61 1019.43 1019.23 1018.93 1018.61 1018.26 1018.06 1017.76 1016.94 1016.44 1015.62 1014.53 1013.34 1011.99
1010.22 1010.20 1010.18 1010.89 1010.74 1011.79 1011.72 1012.15 1012.79 1012.75 1012.75 1013.05 1013.32 1013.77 1014.52 1015.50 1016.30 1017.12 1017.87 1018.60 1019.18 1019.56 1019.77 1019.93 1019.99 1019.94 1019.86 1019.73 1019.66 1019.39 1018.99 1018.87 1018.52 1018.07 1017.72 1017.13 1016.80 1016.48 1016.34 1015.83 1014.81 1013.63 1012.47 1011.16
1010.86 1011.24 1010.74 1011.36 1011.63 1011.74 1012.29 1012.81 1013.08 1013.27 1013.20 1013.47 1013.63 1014.11 1014.98 1015.56 1016.40 1017.14 1017.91 1018.58 1019.02 1019.31 1019.54 1019.65 1019.72 1019.58 1019.37 1019.24 1019.04 1018.71 1018.37 1018.05 1017.56 1017.07 1016.53 1015.74 1015.31 1015.09 1015.21 1015.29 1014.35 1013.56 1012.00 1010.64
1010.69 1011.33 1010.97 1011.05 1011.68 1012.18 1012.38 1012.65 1012.91 1013.51 1013.88 1014.02 1014.21 1014.61 1015.21 1015.86 1016.71 1017.31 1018.01 1018.58 1018.94 1019.26 1019.50 1019.60 1019.54 1019.34 1019.06 1018.86 1018.49 1018.13 1017.88 1017.47 1017.00 1016.44 1015.73 1014.98 1014.37 1014.10 1014.13 1014.43 1013.55 1012.65 1011.86 1010.86
1010.51 1010.35 1010.41 1010.14 1011.16 1011.58 1012.08 1012.78 1013.09 1013.55 1013.98 1014.33 1014.67 1015.18 1015.68 1016.25 1016.84 1017.61 1018.05 1018.54 1018.85 1019.01 1019.21 1019.26 1019.11 1018.93 1018.62 1018.35 1017.97 1017.68 1017.43 1017.03 1016.54 1015.81 1014.86 1014.12 1013.74 1013.04 1013.39 1013.46 1012.86 1011.35 1010.78 1009.74
Thickness
5831 5825 5822 5834 5838 5837 5827 5821 5819 5826 5834 5822 5815 5810 5805 5810 5811 5803 5800 5798 5797 5798 5804 5804 5800 5799 5797 5793 5789 5785 5782 5781 5779 5778 5778 5780 5781 5785 5786 5785 5783 5780 5780 5780
5817 5814 5834 5837 5833 5828 5828 5821 5821 5827 5833 5831 5821 5812 5813 5810 5810 5811 5806 5801 5801 5801 5803 5801 5799 5798 5796 5794 5790 5787 5785 5782 5779 5781 5780 5782 5782 5784 5785 5785 5782 5781 5781 5781
5813 5822 5829 5824 5826 5821 5828 5823 5824 5825 5825 5833 5825 5811 5805 5811 5812 5812 5812 5810 5808 5806 5801 5798 5797 5798 5799 5795 5792 5790 5787 5784 5782 5780 5779 5779 5778 5779 5782 5785 5785 5786 5783 5782
5801 5829 5818 5821 5818 5828 5817 5827 5830 5823 5818 5805 5830 5785 5809 5811 5802 5804 5805 5805 5807 5808 5808 5806 5801 5799 5800 5800 5799 5795 5790 5786 5783 5780 5780 5777 5774 5774 5785 5786 5787 5784 5783 5784
5793 5806 5804 5810 5822 5826 5809 5826 5827 5826 5823 5818 5813 5808 5799 5810 5799 5800 5805 5797 5808 5811 5811 5808 5808 5806 5805 5804 5801 5797 5790 5786 5783 5781 5778 5776 5775 5780 5784 5783 5780 5780 5780 5781
5801 5814 5812 5811 5815 5820 5824 5816 5816 5818 5819 5793 5811 5805 5799 5801 5795 5799 5810 5809 5799 5805 5808 5809 5809 5805 5797 5797 5795 5794 5785 5777 5776 5771 5768 5769 5768 5767 5767 5773 5772 5776 5784 5785
5789 5790 5807 5814 5801 5809 5815 5811 5788 5780 5786 5788 5801 5795 5791 5790 5782 5793 5800 5810 5810 5806 5801 5796 5793 5795 5788 5788 5781 5777 5777 5769 5768 5765 5768 5770 5766 5764 5763 5764 5765 5771 5778 5782
5776 5760 5786 5802 5805 5802 5802 5812 5796 5768 5780 5800 5791 5779 5781 5786 5786 5794 5801 5808 5813 5804 5801 5796 5793 5791 5787 5782 5778 5771 5769 5764 5762 5760 5759 5763 5764 5762 5761 5762 5763 5764 5767 5769
5775 5780 5791 5798 5804 5801 5791 5785 5809 5790 5792 5775 5799 5780 5777 5782 5778 5783 5795 5805 5800 5798 5792 5788 5784 5778 5773 5765 5759 5755 5754 5753 5743 5750 5748 5741 5750 5751 5749 5755 5759 5763 5765 5770
5787 5767 5785 5780 5793 5789 5793 5802 5778 5787 5750 5749 5784 5769 5776 5770 5764 5767 5769 5767 5772 5776 5768 5767 5765 5759 5758 5752 5750 5745 5747 5743 5738 5732 5733 5738 5741 5741 5742 5750 5752 5752 5757 5758
5786 5780 5762 5772 5774 5784 5771 5777 5782 5789 5776 5763 5766 5778 5771 5759 5759 5756 5753 5753 5751 5742 5741 5746 5745 5741 5739 5734 5735 5734 5732 5731 5728 5722 5720 5724 5732 5738 5740 5744 5747 5748 5750 5753
5779 5782 5759 5762 5765 5775 5779 5782 5782 5767 5759 5768 5763 5760 5760 5757 5753 5739 5735 5731 5730 5725 5724 5723 5724 5724 5721 5722 5722 5715 5711 5716 5715 5710 5711 5717 5724 5728 5733 5735 5738 5740 5743 5745
5769 5767 5737 5736 5749 5759 5762 5764 5774 5775 5774 5758 5747 5754 5753 5751 5741 5726 5713 5711 5709 5709 5710 5711 5716 5713 5712 5714 5708 5706 5705 5702 5712 5711 5709 5705 5712 5715 5722 5723 5728 5731 5733 5737
5757 5768 5762 5752 5757 5773 5744 5751 5759 5761 5754 5763 5759 5734 5732 5736 5725 5717 5710 5706 5707 5709 5710 5709 5708 5705 5703 5704 5695 5703 5694 5700 5700 5697 5700 5700 5699 5699 5704 5709 5711 5715 5719 5725
5762 5747 5749 5749 5751 5755 5748 5744 5743 5742 5753 5740 5753 5743 5735 5729 5723 5715 5711 5708 5706 5702 5702 5701 5701 5698 5696 5694 5693 5691 5690 5689 5688 5687 5687 5686 5687 5689 5689 5690 5694 5698 5704 5707
5754 5726 5739 5727 5737 5738 5729 5731 5731 5731 5732 5734 5739 5733 5739 5726 5718 5707 5703 5702 5699 5695 5691 5690 5688 5685 5682 5678 5678 5676 5675 5674 5674 5675 5674 5674 5675 5675 5676 5677 5680 5683 5686 5690
5737 5729 5725 5721 5721 5723 5713 5725 5719 5723 5719 5724 5717 5727 5721 5705 5699 5697 5695 5692 5688 5684 5679 5674 5671 5669 5666 5666 5664 5663 5662 5662 5661 5659 5658 5658 5659 5661 5662 5663 5664 5667 5671 5674
5723 5722 5725 5710 5709 5689 5705 5713 5711 5704 5704 5714 5708 5710 5705 5696 5695 5693 5689 5684 5676 5672 5667 5662 5659 5656 5653 5652 5649 5648 5649 5648 5646 5644 5642 5643 5644 5645 5646 5649 5652 5655 5658 5662
5726 5719 5699 5700 5704 5699 5696 5696 5696 5695 5692 5696 5694 5692 5690 5688 5682 5673 5673 5668 5662 5658 5654 5649 5646 5643 5640 5639 5636 5635 5634 5632 5631 5630 5628 5626 5624 5620 5620 5623 5627 5632 5638 5645
5710 5708 5701 5686 5680 5673 5691 5696 5700 5697 5680 5689 5686 5680 5674 5671 5665 5673 5663 5654 5648 5645 5640 5637 5635 5632 5629 5625 5622 5620 5619 5617 5616 5613 5609 5607 5605 5605 5604 5604 5606 5608 5612 5623
5686 5690 5686 5685 5680 5684 5689 5691 5691 5663 5663 5682 5680 5675 5669 5662 5663 5656 5652 5643 5640 5633 5627 5624 5621 5619 5616 5613 5611 5607 5607 5605 5604 5596 5592 5590 5585 5585 5586 5590 5591 5593 5597 5605
5683 5681 5681 5677 5667 5661 5687 5677 5665 5671 5678 5676 5672 5668 5660 5656 5645 5641 5636 5630 5624 5619 5615 5613 5612 5611 5608 5606 5603 5601 5599 5597 5592 5586 5583 5581 5575 5572 5574 5572 5575 5579 5585 5595
5675 5687 5681 5673 5670 5671 5682 5673 5670 5672 5668 5666 5664 5662 5655 5644 5638 5631 5624 5618 5613 5609 5607 5605 5603 5600 5599 5599 5594 5591 5589 5585 5581 5576 5571 5570 5568 5564 5560 5559 5564 5568 5573 5581
5673 5674 5674 5664 5667 5669 5667 5666 5664 5663 5661 5660 5659 5653 5644 5635 5628 5621 5613 5607 5603 5600 5596 5594 5591 5589 5588 5588 5585 5584 5583 5581 5578 5573 5569 5570 5568 5564 5557 5549 5552 5554 5563 5572
5674 5666 5667 5665 5663 5662 5664 5664 5663 5657 5653 5649 5646 5640 5631 5623 5613 5608 5600 5594 5591 5587 5584 5582 5580 5579 5580 5580 5579 5579 5577 5576 5573 5568 5567 5568 5567 5564 5557 5548 5551 5554 5556 5557
5675 5671 5665 5666 5669 5665 5662 5661 5660 5651 5643 5639 5633 5625 5620 5612 5603 5594 5589 5584 5580 5577 5574 5573 5573 5574 5575 5574 5573 5573 5572 5571 5568 5566 5569 5568 5564 5564 5553 5544 5545 5553 5551 5554